Regional Weather Roundup
Issued by NWS

Home | Current Version | Previous Version | Text Only | Print | Product List | Glossary On
Versions: 1 2 3 4 5 6 7 8 9 10 11 12 13 14 15 16 17 18 19 20 21 22 23 24 25 26 27 28 29 30 31 32 33 34 35 36 37 38 39 40 41 42 43 44 45 46 47 48 49 50
000
ASUS43 KDMX 192206
RWRIA

WEATHER ROUNDUP FOR IOWA
NATIONAL WEATHER SERVICE DES MOINES IA
400 PM CST THU JAN 19 2017

NOTE: "FAIR" INDICATES FEW OR NO CLOUDS BELOW 12,000 FEET WITH NO
SIGNIFICANT WEATHER AND/OR OBSTRUCTIONS TO VISIBILITY.

* - THESE STATIONS ARE NOT NWS STATIONS...THUS NOT UNDER NWS
QUALITY CONTROL.  THEY ALSO DO NOT REPORT WEATHER SUCH
AS PRECIPITATION OR FOG.

IAZ001>003-012>014-020>022-031>034-043>046-192300-
   NORTHWEST IOWA

CITY           SKY/WX    TMP DP  RH WIND       PRES   REMARKS
CARROLL *      MIX PCPN  37  37 100 SE7       29.68S VSB 1/4 WCI  32
CHEROKEE *     CLOUDY    41  41  99 SE3       29.68R FOG
DENISON *      CLOUDY    43  41  93 SE6       29.64F FOG
LE MARS *      CLOUDY    41  39  93 S8        29.67S FOG
ORANGE CITY *  CLOUDY    39  39 100 S3        29.66R FOG
SHELDON *      CLOUDY    39  39 100 SE10      29.65S FOG     WCI  32
SIOUX CITY     FOG       41  40  96 SE8       29.66S VSB 1/2
SPENCER        CLOUDY    38  37  97 SE12      29.68R FOG     WCI  30
STORM LAKE *   FOG       37  37 100 SE8       29.67S VSB 1   WCI  31
$$

IAZ055>058-069>071-079>083-090>094-192300-
   SOUTHWEST IOWA

CITY           SKY/WX    TMP DP  RH WIND       PRES   REMARKS
ATLANTIC *     CLOUDY    43  41  93 CALM      29.67S FOG
AUDUBON *      FOG       41  39  93 E6        29.68S VSB 3/4
CLARINDA *     CLOUDY    46  46 100 CALM      29.68F
COUNCIL BLFS * FOG       41  41 100 SE3       29.66F VSB 1/4
CRESTON *      FOG       41  41 100 E8        29.68S VSB<1/4
HARLAN  *      CLOUDY    41  41 100 SE7       29.70S FOG
LAMONI         FOG       44  43  96 E5        29.68R VSB 1/4
RED OAK *      CLOUDY    45  45 100 CALM      29.67S FOG
SHENANDOAH *   CLOUDY    45  43  93 CALM      29.67S FOG
$$

IAZ047>049-059>061-072>074-084-192300-
   CENTRAL IOWA

CITY           SKY/WX    TMP DP  RH WIND       PRES   REMARKS
AMES           CLOUDY    37  37 100 E6        29.70F FOG     WCI  32
ANKENY *       CLOUDY    37  37 100 E7        29.72S FOG     WCI  32
BOONE *        FOG       37  37 100 E8        29.69F VSB<1/4 WCI  31
CHARITON *     MIX PCPN  39  39 100 E6        29.70S VSB<1/4 WCI  35
DES MOINES     FOG       39  38  96 E7        29.71R VSB 1/2 WCI  34
GRINNELL*      RAIN      36  36  98 E6        29.73R WCI  32
KNOXVILLE *    CLOUDY    37  37 100 E6        29.70S FOG     WCI  33
MARSHALLTOWN   LGT RAIN  36  36 100 E7        29.72S FOG     WCI  30
NEWTON *       CLOUDY    37  36  93 E8        29.72S FOG     WCI  31
PELLA *        CLOUDY    37  37  99 SE7       29.73S FOG     WCI  32
PERRY *        FOG       39  38  97 E6        29.69F VSB 3/4 WCI  35
$$

IAZ004>006-015-016-023>025-035-036-192300-
   NORTH CENTRAL IOWA

CITY           SKY/WX    TMP DP  RH WIND       PRES   REMARKS
ALGONA *       CLOUDY    39  37  93 SE10      29.70S WCI  32
CLARION *      CLOUDY    37  37 100 SE9       29.71S FOG     WCI  31
ESTHERVILLE    FOG       35  35 100 SE7       29.69S VSB 3/4 WCI  29
FORT DODGE *   CLOUDY    37  36  93 SE8       29.71S WCI  31
MASON CITY     CLOUDY    36  33  89 SE10      29.73F WCI  28
FOREST CITY *  CLOUDY    36  34  93 E7        29.72S WCI  30
WEBSTER CITY * MIX PCPN  37  37 100 E7        29.68F VSB 1/4 WCI  32
IOWA FALLS *   CLOUDY    38  37  97 E7        29.72F FOG     WCI  32
$$

IAZ007>011-017>019-026>030-037>042-050>054-066-192300-
   NORTHEAST IOWA

CITY           SKY/WX    TMP DP  RH WIND       PRES   REMARKS
CEDAR RAPIDS   LGT RAIN  36  36 100 E9        29.75F VSB 1   WCI  29
CHARLES CITY * CLOUDY    36  36 100 SE13      29.76F FOG     WCI  27
CLINTON *      RAIN      37  36  96 E9        29.82F FOG     WCI  30
DECORAH *      LGT RAIN  34  34 100 SE7       29.78F WCI  28
DUBUQUE        LGT RAIN  37  36  96 E10       29.80F FOG     WCI  30
MONTICELLO *   CLOUDY    37  37 100 SE9       29.79F FOG     WCI  31
OELWEIN *        N/A     36  36 100 E10       29.77F WCI  28
WATERLOO       MIX PCPN  36  34  92 E10       29.75F FOG     WCI  28
$$

IAZ064-065-067-068-078-192300-
   EAST CENTRAL IOWA

CITY           SKY/WX    TMP DP  RH WIND       PRES   REMARKS
DAVENPORT      LGT RAIN  38  37  97 E10       29.80S FOG     WCI  31
IOWA CITY      CLOUDY    39  38  96 E8        29.77F FOG     WCI  33
MUSCATINE *    FOG       41  39  93 E9        29.77F VSB 1
QUAD CITIES    LGT RAIN  40  37  89 E9        29.79F FOG     WCI  34
$$

IAZ062-063-075>077-085>089-095>099-192300-
   SOUTHEAST IOWA

CITY           SKY/WX    TMP DP  RH WIND       PRES   REMARKS
BURLINGTON     CLOUDY    41  41 100 E6        29.73F FOG
FAIRFIELD *    FOG       39  37  93 E8        29.73F VSB 3/4 WCI  34
FORT MADISON * FOG       41  39  93 E5        29.74S VSB 3/4
KEOKUK *       LGT RAIN  43  43 100 E8        29.72F VSB 3/4
OSKALOOSA *    LGT RAIN  37  37  99 E10       29.73S VSB 1   WCI  30
OTTUMWA        LGT RAIN  39  32  76 E9        29.72F VSB 3/4 WCI  33
WASHINGTON *   FOG       37  37 100 E7        29.76S VSB 1   WCI  32
$$

ABBREVIATIONS USED IN REMARKS
   TC - TEMPERATURES IN CELSIUS
  WCI - WIND CHILL INDEX
   HX - HEAT INDEX
  VSB - VISIBILITY
$$




USA.gov is the U.S. government's official web portal to all federal, state and local government web resources and services.